When you browse on this site, cookies collect data to enhance your experience and personalize the content and advertising you see.
Visit our Privacy Policy to learn more. By continuing to use the site, you agree to this use of cookies and data.
  • In United Kingdom
  • List of Countries
  • For 7 days
  • Water Temperature
  • Weather Map
  • Weather Widgets
  • user-avatar
    Login

    Hourly Weather Pechera

    Today, 23 August, Friday

    Time Temperature Precipitation Wind Pressure Humidity
    00:00 +18°C° 0 mm 4 mps 746 mmHg 85%
    01:00 +17°C° 0 mm 4 mps 747 mmHg 87%
    02:00 +17°C° 0 mm 4 mps 747 mmHg 89%
    03:00 +15°C° 0 mm 4 mps 747 mmHg 90%
    04:00 +15°C° 0 mm 4 mps 746 mmHg 92%
    05:00 +14°C° 0 mm 3 mps 746 mmHg 94%
    06:00 +17°C° 0 mm 4 mps 747 mmHg 88%
    07:00 +18°C° 0 mm 4 mps 747 mmHg 82%
    08:00 +19°C° 0 mm 5 mps 747 mmHg 77%
    09:00 +21°C° 0 mm 4 mps 747 mmHg 69%
    10:00 +23°C° 0 mm 4 mps 747 mmHg 62%
    11:00 +26°C° 0 mm 4 mps 747 mmHg 55%
    12:00 +27°C° 0 mm 4 mps 747 mmHg 51%
    13:00 +28°C° 0 mm 5 mps 747 mmHg 47%
    14:00 +29°C° 0 mm 5 mps 747 mmHg 43%
    15:00 +28°C° 0 mm 5 mps 747 mmHg 45%
    16:00 +28°C° 0 mm 5 mps 746 mmHg 47%
    17:00 +27°C° 0 mm 6 mps 746 mmHg 49%
    18:00 +25°C° 0 mm 5 mps 746 mmHg 55%
    19:00 +22°C° 0 mm 4 mps 746 mmHg 62%
    20:00 +20°C° 0 mm 3 mps 747 mmHg 68%
    21:00 +19°C° 0 mm 3 mps 747 mmHg 72%
    22:00 +18°C° 0 mm 3 mps 747 mmHg 76%
    23:00 +17°C° 0 mm 3 mps 747 mmHg 80%

    Tomorrow, 24 August, Saturday

    Time Temperature Precipitation Wind Pressure Humidity
    00:00 +16°C° 0 mm 3 mps 747 mmHg 83%
    01:00 +16°C° 0 mm 3 mps 747 mmHg 86%
    02:00 +14°C° 0 mm 3 mps 747 mmHg 90%
    03:00 +14°C° 0 mm 3 mps 747 mmHg 91%
    04:00 +14°C° 0 mm 3 mps 746 mmHg 91%
    05:00 +13°C° 0 mm 3 mps 746 mmHg 92%
    06:00 +16°C° 0 mm 3 mps 747 mmHg 84%
    07:00 +18°C° 0 mm 4 mps 747 mmHg 76%
    08:00 +19°C° 0 mm 4 mps 747 mmHg 68%
    09:00 +21°C° 0 mm 4 mps 747 mmHg 59%
    10:00 +23°C° 0 mm 4 mps 747 mmHg 51%
    11:00 +26°C° 0 mm 4 mps 747 mmHg 42%
    12:00 +27°C° 0 mm 4 mps 747 mmHg 38%
    13:00 +28°C° 0 mm 4 mps 746 mmHg 34%
    14:00 +29°C° 0 mm 4 mps 746 mmHg 30%
    15:00 +28°C° 0 mm 4 mps 746 mmHg 32%
    16:00 +28°C° 0 mm 4 mps 746 mmHg 33%
    17:00 +27°C° 0 mm 4 mps 745 mmHg 35%
    18:00 +25°C° 0 mm 4 mps 746 mmHg 41%
    19:00 +22°C° 0 mm 4 mps 746 mmHg 48%
    20:00 +20°C° 0 mm 3 mps 746 mmHg 55%
    21:00 +19°C° 0 mm 3 mps 746 mmHg 57%
    22:00 +18°C° 0 mm 3 mps 746 mmHg 59%
    23:00 +18°C° 0 mm 3 mps 746 mmHg 60%

    Day after tomorrow, 25 August, Sunday

    Time Temperature Precipitation Wind Pressure Humidity
    00:00 +17°C° 0 mm 3 mps 746 mmHg 61%
    01:00 +17°C° 0 mm 3 mps 746 mmHg 62%
    02:00 +16°C° 0 mm 3 mps 745 mmHg 63%
    03:00 +16°C° 0 mm 3 mps 745 mmHg 64%
    04:00 +16°C° 0 mm 3 mps 745 mmHg 66%
    05:00 +14°C° 0 mm 3 mps 745 mmHg 67%
    06:00 +17°C° 0 mm 3 mps 745 mmHg 64%
    07:00 +19°C° 0 mm 3 mps 746 mmHg 60%
    08:00 +20°C° 0 mm 3 mps 746 mmHg 56%
    09:00 +22°C° 0 mm 3 mps 746 mmHg 51%
    10:00 +25°C° 0 mm 4 mps 746 mmHg 45%
    11:00 +27°C° 0 mm 4 mps 746 mmHg 39%
    12:00 +28°C° 0 mm 3 mps 746 mmHg 37%
    13:00 +28°C° 0 mm 3 mps 746 mmHg 34%
    14:00 +29°C° 0 mm 3 mps 746 mmHg 32%
    15:00 +29°C° 0 mm 3 mps 745 mmHg 33%
    16:00 +28°C° 0 mm 3 mps 745 mmHg 33%
    17:00 +28°C° 0 mm 4 mps 745 mmHg 34%
    18:00 +26°C° 0 mm 4 mps 745 mmHg 41%
    19:00 +22°C° 0 mm 4 mps 745 mmHg 47%
    20:00 +20°C° 0 mm 4 mps 745 mmHg 54%
    21:00 +19°C° 0 mm 4 mps 745 mmHg 55%
    22:00 +19°C° 0 mm 4 mps 745 mmHg 56%
    23:00 +18°C° 0 mm 3 mps 746 mmHg 58%

    26 August, Monday

    Time Temperature Precipitation Wind Pressure Humidity
    00:00 +17°C° 0 mm 3 mps 745 mmHg 60%
    01:00 +17°C° 0 mm 3 mps 745 mmHg 62%
    02:00 +16°C° 0 mm 3 mps 745 mmHg 64%
    03:00 +16°C° 0 mm 3 mps 745 mmHg 65%
    04:00 +16°C° 0 mm 3 mps 745 mmHg 65%
    05:00 +15°C° 0 mm 2 mps 745 mmHg 66%
    06:00 +17°C° 0 mm 3 mps 745 mmHg 64%
    07:00 +19°C° 0 mm 3 mps 746 mmHg 61%
    08:00 +21°C° 0 mm 3 mps 746 mmHg 59%
    09:00 +24°C° 0 mm 3 mps 746 mmHg 52%
    10:00 +26°C° 0 mm 4 mps 746 mmHg 45%
    11:00 +28°C° 0 mm 4 mps 746 mmHg 38%
    12:00 +29°C° 0 mm 4 mps 746 mmHg 36%
    13:00 +30°C° 0 mm 4 mps 746 mmHg 34%
    14:00 +30°C° 0 mm 4 mps 745 mmHg 32%
    15:00 +30°C° 0 mm 3 mps 745 mmHg 32%
    16:00 +30°C° 0 mm 3 mps 744 mmHg 33%
    17:00 +30°C° 0 mm 3 mps 744 mmHg 34%
    18:00 +27°C° 0 mm 3 mps 744 mmHg 39%
    19:00 +25°C° 0 mm 3 mps 744 mmHg 45%
    20:00 +22°C° 0 mm 3 mps 744 mmHg 50%
    21:00 +21°C° 0 mm 3 mps 744 mmHg 54%
    22:00 +20°C° 0 mm 3 mps 744 mmHg 59%
    23:00 +19°C° 0 mm 3 mps 744 mmHg 63%

    27 August, Tuesday

    Time Temperature Precipitation Wind Pressure Humidity
    00:00 +19°C° 0 mm 3 mps 744 mmHg 65%
    01:00 +18°C° 0 mm 2 mps 744 mmHg 66%
    02:00 +18°C° 0 mm 2 mps 744 mmHg 68%
    03:00 +17°C° 0 mm 2 mps 744 mmHg 70%
    04:00 +17°C° 0 mm 2 mps 744 mmHg 73%
    05:00 +17°C° 0 mm 2 mps 744 mmHg 75%
    06:00 +19°C° 0 mm 2 mps 744 mmHg 69%
    07:00 +21°C° 0 mm 2 mps 744 mmHg 62%
    08:00 +24°C° 0 mm 2 mps 744 mmHg 55%
    09:00 +26°C° 0 mm 2 mps 744 mmHg 49%
    10:00 +28°C° 0 mm 2 mps 744 mmHg 43%
    11:00 +29°C° 0 mm 3 mps 744 mmHg 37%
    12:00 +30°C° 0 mm 2 mps 744 mmHg 35%
    13:00 +31°C° 0 mm 2 mps 744 mmHg 33%
    14:00 +31°C° 0 mm 2 mps 744 mmHg 31%
    15:00 +31°C° 0 mm 3 mps 743 mmHg 33%
    16:00 +30°C° 0 mm 3 mps 743 mmHg 35%
    17:00 +29°C° 0 mm 3 mps 743 mmHg 38%
    18:00 +27°C° 0 mm 3 mps 743 mmHg 44%
    19:00 +25°C° 0 mm 3 mps 743 mmHg 51%
    20:00 +22°C° 0 mm 3 mps 743 mmHg 57%
    21:00 +21°C° 0 mm 3 mps 744 mmHg 60%
    22:00 +20°C° 0 mm 3 mps 744 mmHg 63%
    23:00 +19°C° 0 mm 2 mps 744 mmHg 65%

    28 August, Wednesday

    Time Temperature Precipitation Wind Pressure Humidity
    00:00 +19°C° 0 mm 2 mps 744 mmHg 67%
    01:00 +18°C° 0 mm 2 mps 744 mmHg 69%
    02:00 +18°C° 0 mm 2 mps 744 mmHg 70%
    03:00 +17°C° 0 mm 2 mps 744 mmHg 72%
    04:00 +17°C° 0 mm 2 mps 744 mmHg 74%
    05:00 +16°C° 0 mm 2 mps 744 mmHg 76%
    06:00 +18°C° 0 mm 2 mps 744 mmHg 69%
    07:00 +20°C° 0 mm 2 mps 744 mmHg 62%
    08:00 +23°C° 0 mm 2 mps 745 mmHg 55%
    09:00 +25°C° 0 mm 3 mps 745 mmHg 50%
    10:00 +26°C° 0 mm 3 mps 745 mmHg 45%
    11:00 +28°C° 0 mm 3 mps 745 mmHg 40%
    12:00 +29°C° 0 mm 3 mps 745 mmHg 38%
    13:00 +29°C° 0 mm 3 mps 744 mmHg 37%
    14:00 +30°C° 0 mm 3 mps 744 mmHg 35%
    15:00 +29°C° 0 mm 4 mps 744 mmHg 38%
    16:00 +29°C° 0 mm 4 mps 743 mmHg 40%
    17:00 +28°C° 0 mm 5 mps 743 mmHg 43%
    18:00 +26°C° 0 mm 4 mps 743 mmHg 49%
    19:00 +23°C° 0 mm 4 mps 743 mmHg 54%
    20:00 +21°C° 0 mm 4 mps 743 mmHg 60%
    21:00 +19°C° 0 mm 3 mps 744 mmHg 59%
    22:00 +18°C° 0 mm 3 mps 744 mmHg 58%
    23:00 +17°C° 0 mm 3 mps 744 mmHg 57%
    Show more